| time (UTC) | temp F | wind direction | speed MPH | gust MPH | rain 1hr in | rain 24hr in | rain mn in | humidity % | barometer mb |
| 20260504151016 | 70 | 158 | 0.0 | 15.0 | 0.00 | 0.00 | 0.00 | 47 | 1006.8 |
| 20260504081011 | 50 | 203 | 2.0 | 8.0 | 0.00 | 0.00 | 0.00 | 59 | 1008.2 |
| 20260504050006 | 50 | 135 | 0.0 | 2.0 | 0.00 | 0.00 | 0.00 | 64 | 1010.2 |
| 20260504045010 | 50 | 135 | 1.0 | 2.0 | 0.00 | 0.00 | 0.00 | 64 | 1010.2 |
| 20260504044013 | 50 | 135 | 0.0 | 2.0 | 0.00 | 0.00 | 0.00 | 64 | 1010.4 |
| 20260504034011 | 49 | 135 | 0.0 | 2.0 | 0.00 | 0.00 | 0.00 | 65 | 1010.9 |
| 20260504031009 | 49 | 135 | 0.0 | 2.0 | 0.00 | 0.00 | 0.00 | 65 | 1011.2 |
| 20260504030011 | 49 | 135 | 0.0 | 6.0 | 0.00 | 0.00 | 0.00 | 64 | 1011.3 |
| 20260504024007 | 49 | 135 | 0.0 | 5.0 | 0.00 | 0.00 | 0.00 | 65 | 1011.3 |
| 20260504022015 | 48 | 158 | 0.0 | 3.0 | 0.00 | 0.00 | 0.00 | 67 | 1011.4 |
| 20260504020007 | 47 | 113 | 0.0 | 5.0 | 0.00 | 0.00 | 0.00 | 70 | 1011.5 |
| 20260504015006 | 47 | 113 | 0.0 | 5.0 | 0.00 | 0.00 | 0.00 | 69 | 1011.4 |
| 20260504014008 | 48 | 135 | 0.0 | 2.0 | 0.00 | 0.00 | 0.00 | 69 | 1011.5 |
| 20260504013009 | 48 | 135 | 0.0 | 1.0 | 0.00 | 0.00 | 0.00 | 68 | 1011.5 |
| 20260504005009 | 47 | 135 | 1.0 | 8.0 | 0.00 | 0.00 | 0.00 | 70 | 1011.3 |
| 20260504004011 | 47 | 135 | 2.0 | 8.0 | 0.00 | 0.00 | 0.00 | 70 | 1011.1 |
| 20260504003008 | 47 | 158 | 0.0 | 8.0 | 0.00 | 0.00 | 0.00 | 70 | 1011.6 |
| 20260504002010 | 47 | 158 | 1.0 | 12.0 | 0.00 | 0.00 | 0.00 | 70 | 1011.5 |
| 20260503235014 | 47 | 135 | 1.0 | 6.0 | 0.00 | 0.00 | 0.00 | 70 | 1011.6 |
| 20260503234014 | 47 | 113 | 1.0 | 2.0 | 0.00 | 0.00 | 0.00 | 71 | 1011.7 |
| 20260503233017 | 47 | 135 | 0.0 | 2.0 | 0.00 | 0.00 | 0.00 | 71 | 1011.9 |
| 20260503232015 | 47 | 135 | 0.0 | 2.0 | 0.00 | 0.00 | 0.00 | 71 | 1012.0 |
| 20260503231009 | 47 | 135 | 0.0 | 2.0 | 0.00 | 0.00 | 0.00 | 72 | 1012.1 |
| 20260503225007 | 48 | 135 | 0.0 | 7.0 | 0.00 | 0.00 | 0.00 | 68 | 1012.5 |
| 20260503222010 | 51 | 248 | 13.0 | 22.0 | 0.00 | 0.00 | 0.00 | 59 | 1013.5 |
| 20260503221009 | 52 | 248 | 9.0 | 29.0 | 0.00 | 0.00 | 0.00 | 55 | 1013.4 |
| 20260503220010 | 53 | 248 | 20.0 | 29.0 | 0.00 | 0.00 | 0.00 | 51 | 1013.4 |
| 20260503215013 | 54 | 248 | 14.0 | 21.0 | 0.00 | 0.00 | 0.00 | 48 | 1013.5 |
| 20260503214014 | 56 | 248 | 7.0 | 24.0 | 0.00 | 0.00 | 0.00 | 45 | 1013.2 |
| 20260503212013 | 59 | 248 | 7.0 | 21.0 | 0.00 | 0.00 | 0.00 | 33 | 1012.7 |
| 20260503211011 | 60 | 248 | 7.0 | 22.0 | 0.00 | 0.00 | 0.00 | 33 | 1012.7 |
| 20260503202013 | 62 | 225 | 10.0 | 17.0 | 0.00 | 0.00 | 0.00 | 33 | 1013.1 |
| 20260503201013 | 62 | 248 | 7.0 | 20.0 | 0.00 | 0.00 | 0.00 | 32 | 1013.2 |
| 20260503193008 | 64 | 225 | 8.0 | 24.0 | 0.00 | 0.00 | 0.00 | 32 | 1013.6 |
| 20260503191016 | 67 | 248 | 5.0 | 18.0 | 0.00 | 0.00 | 0.00 | 32 | 1013.7 |
| 20260503184011 | 67 | 225 | 9.0 | 20.0 | 0.00 | 0.00 | 0.00 | 32 | 1014.2 |
| 20260503182011 | 66 | 203 | 6.0 | 17.0 | 0.00 | 0.00 | 0.00 | 32 | 1014.6 |
| 20260503181017 | 65 | 248 | 7.0 | 20.0 | 0.00 | 0.00 | 0.00 | 32 | 1014.6 |
| 20260503174007 | 67 | 225 | 10.0 | 23.0 | 0.00 | 0.00 | 0.00 | 30 | 1015.0 |
| 20260503172006 | 67 | 248 | 5.0 | 20.0 | 0.00 | 0.00 | 0.00 | 31 | 1015.2 |
| 20260503171016 | 66 | 248 | 6.0 | 20.0 | 0.00 | 0.00 | 0.00 | 32 | 1015.3 |